{"data":{"norad_id":49415,"epoch":"2026-09-19T22:31:39.793728Z","epoch_age_seconds":89696,"freshness":"FRESH","line1":"1 49415U 21104H   26262.93865502  .00002102  00000+0  73363-4 0  9997","line2":"2 49415  53.1605  54.0033 0001141  88.9649 271.1484 15.34379223268261","mean_motion":15.34379223,"eccentricity":0.0001141,"inclination_deg":53.1605,"raan_deg":54.0033,"arg_perigee_deg":88.9649,"mean_anomaly_deg":271.1484,"bstar":7.3363e-5,"rev_number":26826,"period_min":93.84902887205,"perigee_km":461.98444760892,"apogee_km":463.54554144407,"semimajor_km":6840.9019945265,"source":"CELESTRAK","updated_at":"2026-09-20T09:00:39.256281Z"}}